TimeEDT,TemperatureF,Dew PointF,Humidity,Sea Level PressureIn,VisibilityMPH,Wind Direction,Wind SpeedMPH,Gust SpeedMPH,PrecipitationIn,Events,Conditions,WindDirDegrees,DateUTC
12:15 AM,63.0,54.5,74,29.92,10.0,SSE,4.6,-,N/A,,Overcast,160,2013-08-06 04:15:00
12:34 AM,63.0,54.3,73,29.92,10.0,South,6.9,-,N/A,,Overcast,170,2013-08-06 04:34:00
12:55 AM,63.0,54.5,74,29.92,10.0,South,8.1,-,N/A,,Overcast,170,2013-08-06 04:55:00
1:14 AM,63.1,54.5,73,29.92,10.0,South,6.9,-,N/A,,Overcast,170,2013-08-06 05:14:00
1:35 AM,63.5,54.9,73,29.92,10.0,South,5.8,-,N/A,,Overcast,180,2013-08-06 05:35:00
1:55 AM,63.5,55.4,75,29.92,10.0,South,6.9,-,N/A,,Overcast,170,2013-08-06 05:55:00
2:14 AM,63.5,55.8,76,29.91,10.0,South,6.9,-,N/A,,Overcast,170,2013-08-06 06:14:00
2:35 AM,63.5,56.3,77,29.91,10.0,South,6.9,-,N/A,,Overcast,170,2013-08-06 06:35:00
2:55 AM,63.5,56.7,78,29.91,10.0,South,5.8,-,N/A,,Overcast,170,2013-08-06 06:55:00
3:14 AM,63.0,57.0,81,29.91,10.0,SSE,4.6,-,N/A,,Overcast,160,2013-08-06 07:14:00
3:35 AM,62.6,57.6,84,29.91,10.0,SSE,4.6,-,N/A,,Overcast,160,2013-08-06 07:35:00
3:54 AM,62.1,57.7,86,29.90,10.0,SSE,3.5,-,N/A,,Overcast,160,2013-08-06 07:54:00
4:15 AM,61.3,58.1,89,29.89,10.0,SSE,4.6,-,N/A,,Mostly Cloudy,150,2013-08-06 08:15:00
4:35 AM,61.2,57.7,88,29.89,10.0,SSE,4.6,-,N/A,,Mostly Cloudy,160,2013-08-06 08:35:00
4:54 AM,60.8,57.6,89,29.88,10.0,SSE,4.6,-,N/A,,Scattered Clouds,160,2013-08-06 08:54:00
5:15 AM,60.1,57.4,91,29.88,10.0,SSE,4.6,-,N/A,,Clear,160,2013-08-06 09:15:00
5:35 AM,59.9,57.7,93,29.89,10.0,SSE,6.9,-,N/A,,Scattered Clouds,160,2013-08-06 09:35:00
5:54 AM,60.4,58.1,92,29.89,10.0,SSE,5.8,-,N/A,,Overcast,150,2013-08-06 09:54:00
6:15 AM,60.4,58.1,92,29.89,10.0,SSE,3.5,-,N/A,,Overcast,160,2013-08-06 10:15:00
6:35 AM,60.8,58.1,91,29.90,10.0,SSE,5.8,-,N/A,,Overcast,160,2013-08-06 10:35:00
6:54 AM,60.8,58.1,91,29.90,10.0,SSE,5.8,-,N/A,,Overcast,150,2013-08-06 10:54:00
7:15 AM,61.0,58.3,91,29.91,10.0,South,5.8,-,N/A,,Overcast,170,2013-08-06 11:15:00
7:35 AM,61.2,58.3,90,29.90,10.0,SSE,4.6,-,N/A,,Overcast,160,2013-08-06 11:35:00
7:54 AM,61.9,59.0,90,29.89,10.0,South,5.8,-,N/A,,Mostly Cloudy,180,2013-08-06 11:54:00
8:15 AM,63.9,59.4,85,29.88,10.0,South,6.9,-,N/A,,Clear,170,2013-08-06 12:15:00
8:35 AM,65.3,60.1,83,29.88,10.0,SSE,6.9,-,N/A,,Clear,160,2013-08-06 12:35:00
8:54 AM,66.4,60.8,82,29.88,10.0,SSE,8.1,-,N/A,,Clear,150,2013-08-06 12:54:00
9:15 AM,67.5,61.0,80,29.88,10.0,South,8.1,-,N/A,,Clear,180,2013-08-06 13:15:00
9:34 AM,68.4,61.3,78,29.89,10.0,South,8.1,-,N/A,,Clear,190,2013-08-06 13:34:00
9:55 AM,67.5,61.2,80,29.90,10.0,South,6.9,-,N/A,,Scattered Clouds,190,2013-08-06 13:55:00
10:15 AM,68.9,62.1,79,29.89,10.0,South,6.9,-,N/A,,Scattered Clouds,190,2013-08-06 14:15:00
10:34 AM,70.2,62.6,77,29.89,10.0,South,6.9,-,N/A,,Scattered Clouds,180,2013-08-06 14:34:00
10:55 AM,71.6,63.0,74,29.88,10.0,South,5.8,-,N/A,,Mostly Cloudy,180,2013-08-06 14:55:00
11:14 AM,70.9,62.8,75,29.90,10.0,South,6.9,-,N/A,,Overcast,190,2013-08-06 15:14:00
11:35 AM,70.7,63.3,77,29.90,10.0,SW,11.5,-,N/A,,Overcast,230,2013-08-06 15:35:00
11:55 AM,71.6,62.6,73,29.89,10.0,SSW,9.2,-,N/A,,Overcast,200,2013-08-06 15:55:00
12:14 PM,72.1,63.0,73,29.89,10.0,South,9.2,-,N/A,,Scattered Clouds,190,2013-08-06 16:14:00
12:35 PM,72.5,63.1,72,29.89,10.0,South,9.2,-,N/A,,Mostly Cloudy,190,2013-08-06 16:35:00
12:54 PM,72.5,62.4,71,29.89,10.0,SW,10.4,-,N/A,,Overcast,220,2013-08-06 16:54:00
1:15 PM,73.0,63.5,72,29.89,10.0,SSW,8.1,-,N/A,,Overcast,210,2013-08-06 17:15:00
1:35 PM,73.8,63.7,71,29.88,10.0,South,8.1,-,N/A,,Mostly Cloudy,190,2013-08-06 17:35:00
1:54 PM,76.1,64.6,67,29.88,10.0,SSW,8.1,-,N/A,,Overcast,200,2013-08-06 17:54:00
2:15 PM,74.7,64.2,70,29.87,10.0,SSW,5.8,-,N/A,,Mostly Cloudy,210,2013-08-06 18:15:00
2:34 PM,74.7,63.7,69,29.86,10.0,SSW,10.4,-,N/A,,Overcast,210,2013-08-06 18:34:00
2:55 PM,73.2,64.8,75,29.87,10.0,WSW,8.1,-,N/A,,Overcast,250,2013-08-06 18:55:00
3:15 PM,74.3,64.9,72,29.86,10.0,SW,5.8,-,N/A,,Overcast,220,2013-08-06 19:15:00
3:34 PM,72.9,65.1,77,29.86,10.0,West,9.2,-,N/A,,Scattered Clouds,280,2013-08-06 19:34:00
3:55 PM,72.0,65.3,79,29.86,10.0,WNW,8.1,-,N/A,,Clear,290,2013-08-06 19:55:00
4:15 PM,71.4,66.2,84,29.86,10.0,West,9.2,-,N/A,,Clear,280,2013-08-06 20:15:00
4:34 PM,70.7,66.4,86,29.85,10.0,West,6.9,-,N/A,,Scattered Clouds,280,2013-08-06 20:34:00
4:55 PM,73.2,66.9,81,29.85,10.0,WNW,8.1,-,N/A,,Scattered Clouds,290,2013-08-06 20:55:00
5:15 PM,71.6,66.4,84,29.85,10.0,West,9.2,-,N/A,,Scattered Clouds,280,2013-08-06 21:15:00
5:34 PM,71.6,66.7,85,29.85,10.0,West,5.8,-,N/A,,Mostly Cloudy,280,2013-08-06 21:34:00
5:55 PM,73.6,66.7,79,29.85,10.0,West,5.8,-,N/A,,Clear,270,2013-08-06 21:55:00
6:15 PM,74.3,66.7,77,29.85,10.0,West,5.8,-,N/A,,Clear,280,2013-08-06 22:15:00
6:34 PM,73.9,67.1,79,29.85,10.0,WNW,5.8,-,N/A,,Scattered Clouds,290,2013-08-06 22:34:00
6:55 PM,74.3,67.3,79,29.85,10.0,WNW,3.5,-,N/A,,Scattered Clouds,290,2013-08-06 22:55:00
7:14 PM,72.3,66.9,83,29.85,10.0,WNW,5.8,-,N/A,,Clear,290,2013-08-06 23:14:00
7:35 PM,72.1,66.9,84,29.85,10.0,WNW,5.8,-,N/A,,Clear,290,2013-08-06 23:35:00
7:55 PM,70.5,66.2,86,29.85,10.0,WNW,3.5,-,N/A,,Clear,300,2013-08-06 23:55:00
8:12 PM,70.7,66.9,88,29.84,7.0,Calm,Calm,-,N/A,,Clear,0,2013-08-07 00:12:00
8:35 PM,70.5,66.6,87,29.83,10.0,Calm,Calm,-,N/A,,Clear,0,2013-08-07 00:35:00
8:54 PM,69.8,66.6,89,29.83,7.0,Calm,Calm,-,N/A,,Scattered Clouds,0,2013-08-07 00:54:00
9:15 PM,68.2,67.1,96,29.83,7.0,Calm,Calm,-,N/A,,Scattered Clouds,0,2013-08-07 01:15:00
9:35 PM,67.5,66.4,96,29.83,7.0,SE,3.5,-,N/A,,Clear,140,2013-08-07 01:35:00
9:54 PM,67.1,66.4,98,29.83,7.0,Calm,Calm,-,N/A,,Clear,0,2013-08-07 01:54:00
10:15 PM,67.6,66.4,96,29.83,7.0,Calm,Calm,-,N/A,,Scattered Clouds,0,2013-08-07 02:15:00
10:35 PM,68.2,65.7,92,29.83,10.0,South,3.5,-,N/A,,Mostly Cloudy,190,2013-08-07 02:35:00
10:55 PM,69.8,65.3,86,29.82,10.0,South,4.6,-,N/A,,Mostly Cloudy,180,2013-08-07 02:55:00
11:15 PM,70.0,64.6,83,29.83,10.0,South,5.8,-,N/A,,Scattered Clouds,180,2013-08-07 03:15:00
11:35 PM,70.0,64.6,83,29.82,10.0,South,9.2,-,N/A,,Mostly Cloudy,190,2013-08-07 03:35:00
11:55 PM,69.8,64.6,83,29.82,10.0,South,4.6,-,N/A,,Mostly Cloudy,190,2013-08-07 03:55:00